Location: Grantsboro
(35.1404°N, 76.8424°W)
Time: 20:33:32
(UTC+00:00)

STARLINK-30 - Pass Details

Date: 18 January 2020
Orbit: 528 x 531 km, 53.0° (Epoch: 16 February)

Event Time Altitude Azimuth Distance (km) Brightness Sun altitude
Rises 11:44:43 0° 246° (WSW) 2,653 6.7 -6.4°
Reaches altitude 10° 11:47:03 10° 255° (WSW) 1,767 5.7 -6.0°
Maximum altitude 11:50:45 35° 322° (NW) 862 4.2 -5.3°
Drops below altitude 10° 11:54:28 10° 30° (NNE) 1,775 6.3 -4.6°
Sets 11:56:50 0° 39° (NE) 2,668 7.4 -4.1°
